MEA321 ORBI-OLBA

Flight info

Callsign MEA321
Flight time N/A
Altitude 36000
Route DELMI G202 TAN R655 KTN/N0409F260 R655 LEBOR
Aircraft A21N/M-SDE2E3FGHIRWXY/LB1

Departure

Time 2026-04-30 20:07
Airport Baghdad International Airport / New Al Muthana Air Base (ORBI)

Arrival

Time N/A
Airport Beirut Rafic Hariri International Airport (OLBA)
Time Latitude Longitude Altitude Speed Heading
2026-04-30 19:38 33.27040 44.23058 143 ft 0 kts 160°
2026-04-30 19:59 33.27039 44.23058 143 ft 384 kts 160°
2026-04-30 19:59 33.27140 44.23014 143 ft 0 kts 160°
2026-04-30 19:59 33.27082 44.23039 142 ft 31 kts 160°
2026-04-30 20:00 33.27154 44.23013 142 ft 0 kts 162°
2026-04-30 20:00 33.27151 44.23014 142 ft 1 kts 159°
2026-04-30 20:00 33.27138 44.23049 142 ft 12 kts 101°
2026-04-30 20:00 33.27161 44.23113 143 ft 6 kts 26°
2026-04-30 20:01 33.27248 44.23242 143 ft 19 kts 59°
2026-04-30 20:01 33.27282 44.23310 143 ft 19 kts 60°
2026-04-30 20:02 33.27383 44.23547 142 ft 14 kts 92°
2026-04-30 20:03 33.27373 44.23569 142 ft 1 kts 155°
2026-04-30 20:03 33.27363 44.23575 142 ft 2 kts 158°
2026-04-30 20:03 33.27255 44.23640 142 ft 32 kts 132°
2026-04-30 20:03 33.27079 44.23753 143 ft 27 kts 155°
2026-04-30 20:04 33.26918 44.23859 143 ft 26 kts 148°
2026-04-30 20:04 33.26763 44.23967 143 ft 25 kts 150°
2026-04-30 20:04 33.26500 44.24150 143 ft 71 kts 149°
2026-04-30 20:05 33.26090 44.24427 143 ft 52 kts 152°
2026-04-30 20:05 33.25704 44.24693 143 ft 65 kts 149°
2026-04-30 20:05 33.25219 44.25169 142 ft 24 kts 43°
2026-04-30 20:06 33.25365 44.25189 140 ft 20 kts 326°
2026-04-30 20:06 33.25580 44.25060 142 ft 61 kts 330°
2026-04-30 20:06 33.26097 44.24679 145 ft 115 kts 331°
2026-04-30 20:06 33.26946 44.24102 224 ft 156 kts 333°
2026-04-30 20:07 33.27971 44.23442 430 ft 181 kts 332°
2026-04-30 20:07 33.29142 44.22697 721 ft 195 kts 333°
2026-04-30 20:07 33.30721 44.20218 1480 ft 209 kts 269°
2026-04-30 20:08 33.30219 44.18577 1769 ft 222 kts 228°
2026-04-30 20:08 33.28873 44.17625 1958 ft 237 kts 187°
2026-04-30 20:08 33.27229 44.17906 2167 ft 249 kts 149°
2026-04-30 20:08 33.26029 44.19380 2487 ft 255 kts 112°
2026-04-30 20:09 33.25798 44.21457 2938 ft 257 kts 77°
2026-04-30 20:09 33.26636 44.23316 3433 ft 259 kts 42°
2026-04-30 20:09 33.30008 44.23960 4464 ft 266 kts 333°
2026-04-30 20:10 33.31790 44.20315 5633 ft 273 kts 266°